#timestamp,LO_Frequency,Hit,StdDev 
1698112815.2,286047004.5,P
1698112835.1,286047006.7,Y
1698112836.0,286047006.7,P
1698112855.8,286047001.4,N
1698112875.7,286047011.9,P
1698112895.5,286047001.7,N
1698112915.3,286047001.7,N
1698112935.2,286047002.5,N
1698112955.9,286047001.9,N
1698112975.7,286047001.3,N
1698112995.6,286047004.4,N
1698113015.4,286047003.7,N
1698113035.3,286047003.0,N
1698113055.1,286047005.9,N
1698113056.0,286047005.9,N
1698113075.8,286047005.8,N
1698113095.7,286047002.9,N
1698113115.5,286047003.2,N
1698113135.4,286047003.8,N
1698113155.2,286047004.1,N
1698113175.0,286047004.2,N
1698113175.9,286047004.2,N
1698113195.8,286047001.6,N
1698113215.6,286047001.3,N
1698113235.5,286047003.1,N
1698113255.3,286047003.0,N
1698113275.1,286047006.0,N
1698113295.9,286047004.8,N
1698113315.7,286047007.5,Y
1698113335.5,286047003.6,P
1698113355.4,286047003.9,P
1698113375.2,286047001.7,P
1698113395.1,286047003.3,Y
1698113396.0,286047003.3,P
1698113415.8,286047001.0,P
1698113435.6,286047000.9,N
1698113455.5,286047000.8,N
1698113475.3,286046998.5,N
1698113495.1,286047001.0,N
1698113515.9,286047001.2,N
1698113535.7,286047000.5,N
1698113555.6,286047000.6,N
1698113575.4,286047000.9,N
1698113595.2,286047000.9,N
1698113615.1,286047000.3,N
1698113616.0,286047000.3,N
1698113635.8,286047000.4,N
1698113655.6,286047000.4,N
1698113675.5,286047000.4,N
1698113695.3,286047000.9,N
1698113715.2,286046998.2,N
1698113735.9,286046998.6,N
1698113755.7,286046999.6,N
1698113775.6,286046997.4,N
1698113795.4,286046999.3,N
1698113815.2,286046999.0,N
1698113835.1,286046999.4,N
1698113836.0,286046999.4,N
1698113855.8,286046998.3,N
1698113875.7,286047002.8,N
1698113895.5,286047002.4,N
1698113915.3,286046999.9,N
1698113935.2,286047000.1,N
1698113955.0,286047000.8,N
1698113955.9,286047000.8,N
1698113975.7,286047000.5,N
1698113995.6,286047001.0,N
1698114015.4,286047002.6,N
1698114035.3,286047002.3,N
1698114055.1,286047002.4,N
1698114056.0,286047002.4,N
1698114075.8,286047002.6,N
1698114095.7,286047002.0,N
1698114115.5,286046999.7,N
1698114135.3,286047000.3,N
1698114155.2,286047000.8,N
1698114175.0,286047000.3,N
1698114175.9,286047000.3,N
1698114195.8,286047000.9,N
1698114215.6,286047002.8,N
1698114235.4,286047000.2,N
1698114255.3,286047000.9,N
1698114275.1,286046999.3,N
1698114295.8,286046998.3,N
1698114315.7,286046996.5,N
1698114335.5,286046999.1,N
1698114355.4,286046998.1,N
1698114375.2,286046998.8,N
1698114395.0,286046998.7,N
1698114395.9,286046998.7,N
1698114415.8,286047001.1,N
1698114435.6,286047000.0,N
1698114455.5,286047000.3,N
1698114475.3,286047002.4,N
1698114495.1,286047000.1,N
1698114515.9,286047000.0,N
1698114535.7,286047002.4,N
1698114555.5,286047002.0,N
1698114575.4,286046999.8,N
1698114595.2,286047001.9,N
1698114615.1,286047000.0,N
1698114616.0,286047000.0,N
1698114635.8,286047000.9,N
1698114655.6,286046998.8,N
1698114675.5,286047001.2,N
1698114695.3,286046998.8,N
1698114715.2,286046997.0,N
1698114735.9,286046998.8,N
1698114755.7,286047001.0,N
1698114775.6,286046998.1,N
1698114795.4,286047000.9,N
1698114815.3,286046998.3,N
1698114835.1,286047000.8,N
1698114855.8,286046999.8,N
1698114875.7,286047001.9,N
1698114895.5,286047002.2,N
1698114915.4,286047001.9,N
1698114935.2,286047001.7,N
1698114955.0,286047004.2,N
1698114955.9,286047004.2,N
1698114975.8,286047004.4,N
1698114995.6,286047002.3,N
1698115015.4,286047001.8,N
1698115035.3,286047002.0,N
1698115055.1,286047001.6,N
1698115075.9,286047003.9,N
1698115095.7,286047002.3,N
1698115115.5,286047002.2,N
1698115135.4,286047002.4,N
1698115155.2,286047002.5,N
1698115175.0,286047001.3,N
1698115175.9,286047001.3,N
1698115195.8,286047002.0,N
1698115215.6,286047001.5,N
1698115235.5,286047002.0,N
1698115255.3,286047004.4,N
1698115275.1,286047002.1,N
1698115295.9,286047002.3,N
1698115315.7,286047001.3,N
1698115335.6,286047001.9,N
1698115355.4,286047004.3,Y
1698115375.2,286047000.7,P
1698115395.1,286047000.4,N
1698115396.0,286047000.4,N
1698115415.8,286047002.4,Y
1698115435.7,286047001.1,P
1698115455.5,286047000.8,P
1698115475.3,286047000.9,P
1698115495.2,286047000.0,N
1698115515.0,286046998.2,Y
1698115515.9,286046998.2,P
1698115535.8,286046998.7,N
1698115555.6,286046998.7,N
1698115575.4,286046998.2,N
1698115595.3,286046998.2,N
1698115615.1,286046999.2,N
1698115635.9,286046999.0,N
1698115655.7,286046998.7,N
1698115675.5,286046998.8,N
1698115695.4,286046998.9,N
1698115715.2,286047000.8,N
1698115735.1,286047001.2,N
1698115736.0,286047001.2,N
1698115755.8,286046996.6,Y
1698115775.6,286046996.5,P
1698115795.5,286046999.5,N
1698115815.3,286046998.6,N
1698115835.2,286046999.0,N
1698115855.9,286046999.3,N
1698115875.7,286046998.6,N
1698115895.6,286046998.9,N
1698115915.4,286046999.1,N
1698115935.3,286046998.5,N
1698115955.1,286046998.8,N
1698115956.0,286046998.8,N
1698115975.8,286046999.6,N
1698115995.7,286046998.9,N
1698116015.5,286046998.8,N
1698116035.3,286046998.4,N
1698116055.2,286046998.8,N
1698116075.0,286046998.9,N
1698116075.9,286046998.9,N
1698116095.8,286046999.3,N
1698116115.6,286046998.7,N
1698116135.4,286046999.4,N
1698116155.3,286046999.2,N
1698116175.1,286046997.3,Y
1698116195.9,286046998.6,P
1698116215.7,286046998.1,P
1698116235.5,286046998.2,P
1698116255.4,286047000.6,N
1698116275.2,286047000.1,N
1698116295.0,286047000.0,N
1698116295.9,286047000.0,N
1698116315.8,286047002.2,N
1698116335.6,286047002.2,N
1698116355.8,286047001.6,N
1698116375.6,286047001.9,N
1698116395.4,286047002.2,N
